User: anonymous   Login
Location: ???? ?????????
(31.1304°N, 31.7111°E)
Time: 01:18:44
(UTC+00:00)
Language:

Meteor 2-15 - Orbit

View from above orbital plane
View from above orbital plane
View from above satellite
View from above satellite

Ground track
Ground track

The orbit data is extracted from the following two-line orbital elements,

1 17290U 87001A   21021.53459712  .00000022  00000-0  69707-5 0  9995
2 17290  82.4651 242.0584 0012268 311.8237  48.1874 13.85053138720745
Epoch (UTC): 21 January 2021 12:49:49
Eccentricity: 0.0012268
inclination: 82.4651°
perigee height: 937 km
apogee height: 955 km
right ascension of ascending node: 242.0584°
argument of perigee: 311.8237°
revolutions per day: 13.85053138
mean anomaly at epoch: 48.1874°
orbit number at epoch: 72074

The dashed part of the orbit path shows where the satellite is in the earth's shadow,  

DLR